Flag for U.S.A. Weather past 2 weeks in Tempe, Arizona, U.S.A.

Now
89 °F

Passing clouds.


Feels Like: 85 °F
Forecast: 59 / 89 °F
Wind: 10 mph from West

Location: Phoenix Sky Harbor International Airport

Current Time: Apr 18, 2015 at 6:06:01 PM

Latest Report: Apr 18, 2015 at 4:51 PM


Visibility: 10 mi

Pressure: 29.76 "Hg

Humidity: 7%

Dew point: 16 °F

Location of TempeLocation

Historic Weather in Tempe — Graph

°F

Tempe temperature yesterday

Maximum temperature yesterday: 81 °F (at 5:51 PM)
Minimum temperature yesterday: 56 °F (at 4:51 AM)
Average temperature yesterday: 69 °F

Past Weeks' High & Low Weather Summary

 TemperatureHumidityPressure
High93 °F (Apr 14, 2:51 PM)54% (Apr 13, 5:51 AM)30.01 "Hg (Apr 13, 5:51 AM)
Low56 °F (Apr 9, 5:51 AM)3% (Apr 15, 2:51 PM)29.64 "Hg (Apr 5, 6:51 PM)
Average74 °F16%29.84 "Hg
* Reported Apr 3 4:51 PM — Apr 18 4:51 PM, Tempe, Weather by CustomWeather, © 2015

Note: Actual official high and low records may vary slightly from our data, if they occured in-between our weather recording intervals... More about our weather records

Advertising

Tempe weather history for previous 24 hours

 ConditionsComfort  
Time TempWeatherWind HumidityBarometerVisibility
4:51 PM
Sat, Apr 18
89 °FPassing clouds.10 mph7%29.76 "Hg10 mi
3:51 PM89 °FPassing clouds.15 mph7%29.77 "Hg10 mi
2:51 PM87 °FLight rain. Passing clouds.13 mph7%29.80 "Hg10 mi
1:51 PM87 °FPassing clouds.16 mph6%29.83 "Hg10 mi
12:51 PM87 °FPassing clouds.12 mph8%29.86 "Hg10 mi
11:51 AM83 °FPassing clouds.10 mph9%29.88 "Hg10 mi
10:51 AM77 °FPassing clouds.No wind13%29.92 "Hg10 mi
9:51 AM74 °FSunny.5 mph15%29.93 "Hg10 mi
8:51 AM69 °FSunny.6 mph19%29.93 "Hg10 mi
7:51 AM65 °FSunny.7 mph22%29.94 "Hg10 mi
6:51 AM60 °FPassing clouds.7 mph27%29.92 "Hg10 mi
5:51 AM60 °FPassing clouds.5 mph26%29.90 "Hg10 mi
4:51 AM61 °FClear.6 mph26%29.89 "Hg10 mi
3:51 AM62 °FClear.9 mph23%29.89 "Hg10 mi
2:51 AM63 °FClear.3 mph23%29.88 "Hg10 mi
1:51 AM66 °FClear.6 mph19%29.88 "Hg10 mi
12:51 AM68 °FClear.5 mph17%29.89 "Hg10 mi
11:51 PM
Fri, Apr 17
70 °FClear.6 mph16%29.89 "Hg10 mi
10:51 PM72 °FPassing clouds.7 mph13%29.89 "Hg10 mi
9:51 PM73 °FPassing clouds.7 mph13%29.89 "Hg10 mi
8:51 PM74 °FPassing clouds.6 mph15%29.88 "Hg10 mi
7:51 PM77 °FPassing clouds.8 mph12%29.86 "Hg10 mi
6:51 PM79 °FBroken clouds.9 mph10%29.85 "Hg10 mi
Weather by CustomWeather, © 2015

See weather overviewHow to use our weather pages